www.pogodaiklimat.ru

Погода и климат >> Архив погоды >> Индия >> New Delhi


АРХИВ ПОГОДЫ в New Delhi

Время (UTC), дата Ветер
(напр.,м/с)
 
Видим.   Явления Облачность Т
(С)
Тd
(С)
f
(%)
Тe
(С)
Тes
(С)
Комфортность P
(гПа)
Po
(гПа)
Тmin
(С)
Tmax
(С)
R
(мм)
R24
(мм)
S
(см)
15 17.11 штиль 0 2000 м дымка {дождь} 6/3 1200 м
[Sc diur, vesp Ac trans]
+19.4 +15.0 76 +21 +21 комфорт 1013.9 1014.0 0.0
18 17.11 штиль 0 2000 м дымка {дождь} 6/3 1200 м
[Sc diur, vesp Ac trans]
+17.2 +14.0 81 +17 +17 по сезону 1014.6 1015.0 0.0
21 17.11 СЗ 4 2000 м слабый дождь 9/4 1200 м
[Sc diur, vesp Ac As]
+17.6 +15.2 86 +17 +17 тепло 1013.1 1013.0 0.5
00 18.11 штиль 0 1000 м дымка {дождь} 8/4 1200 м
[Sc diur, vesp Ac trans]
+16.8 +16.1 96 +17 +17 тепло 1013.9 1014.0 1
03 18.11 З 1 1000 м дымка {дождь} 5/3 1200 м
[Sc Ac trans]
+17.4 +15.0 86 +18 +19 по сезону 1015.7 1016.0 +15.2 +26.1 1
06 18.11 СЗ 1 1000 м дым {туман} 5/3 1200 м
[Sc Ac trans]
+23.6 +13.7 54 +26 +32 жарко 1016.0 1016.0
09 18.11 З 1 1000 м мгла 6/3 1200 м
[Sc Ac trans]
+24.0 +15.0 57 +27 +31 жарко 1014.5 1015.0
12 18.11 штиль 0 2000 м мгла 5/3 1200 м
[Sc Ac trans]
+23.0 +16.5 67 +28 +28 душно 1013.5 1014.0 +24.3
15 18.11 З 1 2000 м мгла 5/3 1200 м
[Sc Ac trans]
+20.4 +15.4 73 +24 +24 комфорт 1015.0 1015.0
18 18.11 З 1 1000 м дымка 5/3 1200 м
[Sc Ac trans]
+17.8 +13.6 76 +19 +19 тепло 1016.0 1016.0
21 18.11 штиль 0 50 км дымка ?/? +17.0 +13.1 78 +17 +17 тепло 1014.9 1015.0
00 19.11 З 2 2000 м дымка 5/3 1200 м
[Sc Ac trans]
+15.4 +11.3 77 +15 +15 тепло 1015.3 1015.0
03 19.11 З 2 2000 м мгла 3/0
[Ac trans]
+16.8 +9.6 62 +17 +18 прохладно 1017.1 1017.0 +14.6 +24.3
06 19.11 СЗ 4 2000 м мгла ясно +22.6 +10.2 45 +24 +30 комфорт 1017.6 1018.0
09 19.11 С 2 2000 м дым 3/0
[Ac trans]
+24.0 +7.8 35 +24 +30 комфорт 1015.3 1015.0
12 19.11 штиль 0 2000 м мгла ясно +21.0 +10.8 52 +23 +23 комфорт 1015.2 1015.0 +24.5
15 19.11 штиль 0 2000 м мгла ясно +16.8 +11.3 70 +17 +17 прохладно 1016.8 1017.0
18 19.11 штиль 0 1000 м дымка ясно +14.6 +10.8 78 +14 +14 по сезону 1017.6 1018.0
21 19.11 З 2 1000 м дымка ясно +13.4 +9.1 75 +13 +13 по сезону 1016.9 1017.0
00 20.11 штиль 0 1000 м дымка ясно +11.8 +8.6 81 +11 +11 прохладно 1017.5 1018.0
03 20.11 штиль 0 1000 м дым ясно +13.0 +7.7 70 +13 +15 холодно 1019.5 1020.0 +9.4 +24.5
06 20.11 СЗ 3 2000 м мгла ясно +22.2 +4.9 32 +22 +30 комфорт 1019.0 1019.0
09 20.11 СЗ 3 2000 м дым ясно +23.2 +4.8 30 +23 +29 комфорт 1016.2 1016.0
12 20.11 СЗ 2 2000 м дым ясно +20.6 +7.9 44 +23 +23 комфорт 1015.8 1016.0 +24.4
15 20.11 штиль 0 2000 м мгла ясно +14.4 +8.9 70 +14 +14 холодно 1017.1 1017.0
18 20.11 штиль 0 1000 м дымка ясно +11.6 +9.2 85 +11 +11 прохладно 1017.0 1017.0
21 20.11 ЮЗ 2 1000 м дымка ясно +10.6 +8.6 87 +10 +10 прохладно 1016.0 1016.0
00 21.11 З 2 1000 м дымка ясно +11.0 +6.8 75 +10 +10 прохладно 1015.8 1016.0
03 21.11 З 1 1000 м дым ясно +13.8 +6.8 63 +14 +16 холодно 1017.0 1017.0 +10.2 +24.4
06 21.11 З 3 2000 м мгла ясно +21.2 +6.2 38 +22 +29 комфорт 1016.1 1016.0
09 21.11 З 5 2000 м дым ясно +23.6 +7.7 36 +24 +27 комфорт 1013.5 1014.0
12 21.11 нст 1 2000 м мгла ясно +20.6 +9.4 49 +23 +23 комфорт 1013.6 1014.0
15 21.11 штиль 0 2000 м дымка ясно +14.0 +9.8 76 +14 +14 холодно 1015.1 1015.0
18 21.11 штиль 0 2000 м дымка ясно +12.6 +9.5 81 +12 +12 прохладно 1015.1 1015.0
21 21.11 штиль 0 2000 м дымка ясно +11.2 +8.8 85 +11 +11 прохладно 1014.5 1015.0
00 22.11 З 1 2000 м дымка ясно +11.0 +7.3 78 +11 +11 по сезону 1014.5 1015.0
03 22.11 З 3 2000 м мгла ясно +13.8 +5.3 56 +13 +14 холодно 1016.1 1016.0 +9.6 +24.2
06 22.11 З 3 2000 м дым ясно +22.4 +6.4 35 +23 +30 комфорт 1015.6 1016.0
09 22.11 З 4 4000 м мгла ясно +24.8 +2.4 23 +24 +28 комфорт 1012.9 1013.0
12 22.11 штиль 0 2000 м мгла ясно +21.0 +7.5 42 +22 +22 комфорт 1012.7 1013.0 +25.1
15 22.11 З 1 2000 м мгла ясно +13.8 +9.1 73 +14 +14 холодно 1014.1 1014.0
18 22.11 штиль 0 2000 м мгла ясно +12.2 +7.7 74 +12 +12 прохладно 1013.9 1014.0
21 22.11 З 1 1000 м дымка ясно +11.4 +8.1 80 +11 +11 прохладно 1012.9 1013.0
00 23.11 штиль 0 1000 м дымка ясно +10.8 +6.6 75 +10 +10 по сезону 1013.2 1013.0
03 23.11 З 2 2000 м дым ясно +13.0 +4.3 55 +12 +14 холодно 1014.7 1015.0 +9.4 +25.1
06 23.11 СЗ 3 2000 м мгла ясно +22.0 +6.3 36 +23 +30 комфорт 1014.5 1015.0
09 23.11 СЗ 4 4000 м дым ясно +25.4 +14.8 52 +28 +32 жарко 1012.0 1012.0
12 23.11 штиль 0 2000 м мгла ясно +20.4 +9.6 50 +22 +22 комфорт 1012.4 1012.0 +25.6
15 23.11 штиль 0 2000 м мгла ясно +13.8 +8.7 71 +14 +14 холодно 1014.2 1014.0
18 23.11 штиль 0 2000 м дымка ясно +11.4 +8.1 80 +11 +11 прохладно 1015.9 1016.0
21 23.11 штиль 0 2000 м дымка ясно +10.0 +7.1 82 +9 +9 прохладно 1014.7 1015.0
00 24.11 штиль 0 2000 м дымка ясно +8.8 +6.7 87 +8 +8 прохладно 1015.3 1015.0
03 24.11 ЮЗ 2 2000 м мгла ясно +11.2 +5.6 68 +11 +12 холодно 1016.8 1017.0 +7.6 +25.6
06 24.11 З 3 4000 м дым ясно +23.6 +4.8 30 +23 +30 комфорт 1016.0 1016.0
09 24.11 З 4 4000 м дым ясно +26.2 +5.7 27 +26 +29 жарко 1013.8 1014.0

 

Местоположение метеостанции New Delhi (Delhi, Индия): широта 28.58 долгота 77.20 высота над уровнем моря 216 м.

В архиве по умолчанию представлена погода в New Delhi за последнюю неделю. Архивные данные за месяц целиком и за предыдущие месяцы, начиная с января 2011 года, Вы можете получить, выбрав интересующий диапазон дат из раскрывающегося списка и нажав кнопку "Ввод!".

Внимание! Время в таблицах - всемирное. Для получения местного времени необходимо прибавить поправку, которая в New Delhi равна 5.5 ч.

Смотрите также архив погоды в соседних городах и на ближайших метеорологических станциях:

Погода в New Delhi Airport (Delhi, Индия) (8 км)
Погода в Ridge (Delhi, Индия) (10 км)
Погода в New Delhi Aya Nagar (Delhi, Индия) (13 км)
Погода в Meerut (Uttar Pradesh, Индия) (70 км)
Погода в Karnal (Haryana, Индия) (126 км)
Погода в Hissar (Haryana, Индия) (157 км)
Погода в Pilani (Rajasthan, Индия) (161 км)
Погода в Najibabad (Uttar Pradesh, Индия) (163 км)
Погода в Agra (Uttar Pradesh, Индия) (176 км)
Погода в Ambala (Haryana, Индия) (204 км)

Пояснения к столбцам:

Ветер - указаны скорость ветра в м/с - средняя за 10 мин, порывы в срок и между сроками (в фигурных скобках) и направление, откуда дует ветер: С - северный, СВ - северо-восточный, В - восточный, ЮВ - юго-восточный, Ю - южный, ЮЗ - юго-западный, З - западный, СЗ - северо-западный.
Видимость - горизонтальная дальность видимости в метрах или километрах. При видимости от 1 до 10 км при отсутствии осадков обычно наблюдается дымка, при ухудшении видимости до 1 км и менее - туман. В сухую погоду видимость может ухудшаться дымом, пылью или мглою.
Явления - указаны атмосферные явления, наблюдавшиеся в срок или в последний час перед сроком; фигурными скобками обозначены явления, наблюдавшиеся между сроками (за 1-3 часа до срока); квадратными скобками обозначены град или гололедные отложения с указанием их диаметра в мм.
Облачность - указаны через наклонную черту общая и нижняя облачность в баллах и высота нижней границы облаков в метрах; квадратными скобками обозначены формы облаков: Ci - перистые, Cs - перисто-слоистые, Cc - перисто-кучевые, Ac - высококучевые, As - высокослоистые, Sc - слоисто-кучевые, Ns - слоисто-дождевые, Cu - кучевые, Cb - кучево-дождевые. Подробнее классификацию облаков см. в Атласе облаков (PDF).
T - Температура воздуха - температура, измеренная на высоте 2 м над землей.
Td - Температура точки росы - температура, при понижении до которой содержащийся в воздухе водяной пар достигнет насыщения.
f - Относительная влажность воздуха - влажноcть воздуха, измеренная на высоте 2 м над землей.
Te - Эффективная температура - температура, которую ощущает одетый по сезону человек в тени. Характеристика душности погоды. При расчете учитывается влияние влажности воздуха и скорости ветра на теплоощущения человека.
Tes - Эффективная температура на солнце - температура, которую ощущает человек, с поправкой на солнечный нагрев. Характеристика знойности погоды. Зависит от высоты солнца над горизонтом, облачности и скорости ветра. Ночью, в пасмурную погоду, а также при ветре 12 м/с и более поправка равна нулю.
P - Атмосферное давление - приведенное к уровню моря атмосферное давление.
Po - Атмосферное давление - измеренное на уровне метеостанции атмосферное давление.
Tmin - Минимальная температура - минимум температуры воздуха на высоте 2 м над землей.
Tmax - Максимальная температура - максимум температуры воздуха на высоте 2 м над землей.
R - Количество осадков - Количество выпавших осадков за период времени, мм. При наведении курсора мыши на число - период времени, за который выпало указанное количество осадков.
R24 - Количество осадков - Количество выпавших осадков за 24 часа, мм.
S - Снежный покров - Высота снежного покрова, см. При наведении курсора мыши на число - состояние снежного покрова и степень покрытия местности в баллах.